Showing default

AE1C, 62649

Orbit data source: Space-Track

AE1C, 62649 is a payload satellite owned by ArkEdge (JP) in SSO that was launched on Tue, 14 Jan 2025 UTC via an FALCON 9 launch vehicle from the Air Force Western Test Range (AFWTR). Payload-class satellites include a variety of spacecraft equipped with specific instruments for various scientific and technological missions. These include communications satellites like Starlink; space stations such as the ISS; scientific satellites like the Hubble; Earth observation satellites from companies like Planet Labs, Umbra, and HawkEye 360; GPS; miniature CubeSats for education and research; and military/defense satellites.

Loading next visibility...
Identifier
62649, 2025-009AS
Orbit
SSO
Country
Flag of JPJP / JPN
Related business
Manufacturer
ArkEdge
Mission
Operational Commercial Technology
Bus & Motor
CUBESAT 6U, Unknown motor
Mass
~10 kg wet, ~10 kg dry
Launch date (UTC)
2025-01-14 (9 months ago)
Launch vehicle
FALCON 9
Launch site
Air Force Western Test Range (AFWTR)
Object type
Payload
Rocket body
Debris
Shape & HBR
Box + 2 Pan, 0.3 m
Radar Cross Section
0.080 m², Medium (>0.1 m² and < 1m²)

Expand to show TLE details & history
Last TLE update: 1 day ago

TLE from 1 day ago
0 AE1C
1 62649U 25009AS  25300.19201133  .00026526  00000-0  89857-3 0  9994
2 62649  97.4219  20.4002 0002198  67.0914 293.0558 15.30546408 43461
Epoch: 2025-10-27T04:36Z
TLE epoch observation values (Epoch: 2025-10-27T04:36:29.778Z)
Latitude
-0.00011°
Longitude
-84.52125°
Altitude
476.695 km
Speed
7.628 km/s
True Right ascension
01h 21m 36s
True Declination
0° 00' 00"
Sunlit
Object was in full shadow at epoch
Visualization orbit readout
Latitude
Unknown
Longitude
Unknown
Altitude
Unknown
Speed
Unknown
Apparent Right ascension
Unknown
Apparent Declination
Unknown
Sunlit
N/A
Visualization observer readout
Local Sidereal Time
06:34:31
Azimuth
Unknown
Elevation
Unknown
Doppler factor
Unknown
Orbital elements
Apogee altitude
472.639 km
Perigee altitude
469.628 km
Semi-major axis
6,849.27 km
Eccentricity
0.00022
Inclination
97.4219°
RAAN
20.4002°
Arg. of periapsis
67.0914°
True anomaly
293.03262°
Mean anomaly
293.0558°
Eccentric anomaly
293.04421°
Mean motion
3.82892 °/min
Orbital period
94.02 mins
BSTAR
0.00089857
Loading maneuver chart data...
Computing Atmospheric mass density...
Loading historical data...
Loading historical data...
Loading historical data...
Loading historical data...
Loading historical data...
Loading historical data...
Loading historical data...

Documentation

Showing up to 5 results
|